Flag for U.S.A. Weather past 2 weeks in Chesapeake, Virginia, U.S.A.

Now
36 °F

Low clouds.


Feels Like: 36 °F
Forecast: 31 / 46 °F
Wind: No wind

Location: Chesapeake Municipal Airport

Current Time: Mar 1, 2015 at 10:46:34 PM

Latest Report: Mar 1, 2015 at 10:15 PM


Visibility: 7 mi

Pressure: 30.29 "Hg

Humidity: 100%

Dew point: 36 °F

Location of ChesapeakeLocation

Historic Weather in Chesapeake — Graph

°F

Chesapeake temperature yesterday

Maximum temperature yesterday: 34 °F (at 11:15 AM)
Minimum temperature yesterday: 28 °F (at 4:15 AM)
Average temperature yesterday: 31 °F

Past Weeks' High & Low Weather Summary

 TemperatureHumidityPressure
High59 °F (Feb 22, 12:15 PM)100% (Feb 16, 11:15 PM)30.83 "Hg (Feb 16, 11:15 PM)
Low9 °F (Feb 20, 6:55 AM)18% (Feb 15, 3:55 PM)29.56 "Hg (Feb 14, 9:15 PM)
Average30 °F69%30.22 "Hg
* Reported Feb 14 9:15 PM — Mar 1 9:15 PM, Chesapeake, Weather by CustomWeather, © 2015

Note: Actual official high and low records may vary slightly from our data, if they occured in-between our weather recording intervals... More about our weather records

Advertising

Chesapeake weather history for previous 24 hours

 ConditionsComfort  
Time TempWeatherWind HumidityBarometerVisibility
9:15 PM
Sun, Mar 1
36 °FOvercast.No wind100%30.33 "Hg7 mi
8:55 PM36 °FFog.No wind100%30.33 "Hg5 mi
8:35 PM36 °FFog.No wind100%30.33 "Hg5 mi
8:15 PM36 °FMostly cloudy.No wind100%30.34 "Hg10 mi
7:55 PM36 °FOvercast.No wind100%30.36 "Hg10 mi
7:35 PM36 °FMostly cloudy.No wind100%30.37 "Hg10 mi
7:15 PM36 °FLight rain. Overcast.No wind100%30.36 "Hg7 mi
6:55 PM36 °FLight rain. Overcast.No wind100%30.38 "Hg7 mi
6:35 PM36 °FLight rain. Mostly cloudy.No wind100%30.39 "Hg7 mi
6:15 PM36 °FLight rain. Low clouds.7 mph100%30.40 "Hg2 mi
5:55 PM36 °FLight snow. Low clouds.6 mph100%30.39 "Hg2 mi
5:35 PM36 °FRain. Low clouds.5 mph100%30.36 "Hg2 mi
5:15 PM36 °FHeavy rain. Low clouds.3 mph100%30.36 "Hg2 mi
4:55 PM36 °FDrizzle. Low clouds.No wind100%30.37 "Hg1 mi
4:15 PM37 °FDrizzle. Low clouds.3 mph93%30.40 "Hg2 mi
3:55 PM37 °FHeavy rain. Low clouds.No wind93%30.41 "Hg2 mi
3:35 PM37 °FDrizzle. Mostly cloudy.6 mph100%30.41 "Hg4 mi
3:15 PM37 °FLow clouds.3 mph100%30.42 "Hg7 mi
2:35 PM39 °FRain. Overcast.5 mph93%30.45 "Hg3 mi
2:15 PM39 °FRain. Overcast.3 mph87%30.45 "Hg4 mi
1:55 PM39 °FLight rain. Mostly cloudy.5 mph87%30.47 "Hg10 mi
1:35 PM39 °FPartly sunny.No wind87%30.46 "Hg10 mi
1:15 PM39 °FScattered clouds.3 mph87%30.47 "Hg10 mi
12:55 PM39 °FLight rain. Broken clouds.5 mph87%30.48 "Hg10 mi
12:35 PM37 °FLight rain. Cloudy.No wind87%30.51 "Hg10 mi
12:15 PM37 °FLight rain. Cloudy.3 mph87%30.52 "Hg5 mi
11:55 AM37 °FDrizzle. Overcast.3 mph81%30.55 "Hg10 mi
11:35 AM37 °FOvercast.5 mph75%30.56 "Hg10 mi
11:15 AM37 °FDrizzle. Overcast.6 mph75%30.57 "Hg10 mi
10:55 AM37 °FDrizzle. Mostly cloudy.5 mph75%30.57 "Hg10 mi
10:15 AM37 °FOvercast.No wind75%30.60 "Hg10 mi
9:55 AM37 °FOvercast.6 mph75%30.60 "Hg10 mi
9:35 AM36 °FLight rain. Overcast.3 mph81%30.60 "Hg10 mi
9:15 AM36 °FDrizzle. Overcast.5 mph81%30.61 "Hg10 mi
8:55 AM36 °FDrizzle. Overcast.6 mph81%30.62 "Hg10 mi
8:35 AM36 °FOvercast.5 mph81%30.60 "Hg10 mi
8:15 AM36 °FOvercast.No wind81%30.61 "Hg10 mi
7:55 AM36 °FOvercast.5 mph81%30.60 "Hg10 mi
7:35 AM36 °FLight rain. Overcast.5 mph81%30.61 "Hg10 mi
7:15 AM36 °FLight rain. Overcast.6 mph75%30.61 "Hg10 mi
6:55 AM34 °FOvercast.6 mph81%30.63 "Hg10 mi
6:15 AM34 °FOvercast.No wind81%30.63 "Hg10 mi
5:55 AM34 °FOvercast.No wind75%30.65 "Hg10 mi
5:35 AM34 °FMostly cloudy.3 mph75%30.63 "Hg10 mi
5:15 AM32 °FMostly cloudy.5 mph80%30.63 "Hg10 mi
4:55 AM32 °FMostly cloudy.3 mph80%30.64 "Hg10 mi
4:35 AM30 °FMostly cloudy.5 mph80%30.64 "Hg10 mi
4:15 AM30 °FOvercast.No wind80%30.64 "Hg10 mi
3:55 AM30 °FOvercast.No wind80%30.64 "Hg10 mi
3:35 AM30 °FPassing clouds.No wind80%30.64 "Hg10 mi
3:15 AM28 °FPassing clouds.No wind80%30.66 "Hg10 mi
2:55 AM28 °FPassing clouds.No wind80%30.65 "Hg10 mi
2:35 AM28 °FPassing clouds.No wind80%30.67 "Hg10 mi
2:15 AM28 °FClear.3 mph80%30.68 "Hg10 mi
1:55 AM28 °FClear.No wind80%30.69 "Hg10 mi
1:35 AM28 °FClear.No wind74%30.70 "Hg10 mi
1:15 AM28 °FClear.No wind74%30.71 "Hg10 mi
12:55 AM28 °FClear.No wind74%30.71 "Hg10 mi
12:15 AM28 °FClear.No wind80%30.73 "Hg10 mi
11:55 PM
Sat, Feb 28
28 °FClear.No wind74%30.73 "Hg10 mi
11:35 PM28 °FClear.No wind74%30.75 "Hg10 mi
11:15 PM28 °FClear.No wind74%30.76 "Hg10 mi
10:55 PM28 °FClear.No wind74%30.77 "Hg10 mi
10:15 PM28 °FClear.No wind74%30.78 "Hg10 mi
Weather by CustomWeather, © 2015

See weather overviewHow to use our weather pages